Home   Weather   Winchester   Past weeks

Flag for United Kingdom Past Weather in Winchester, England, United Kingdom — Yesterday and Last 2 Weeks

Now
41 °F

Sunny.


Feels Like: 33 °F
Forecast: 32 / 40 °F
Wind: 14 mph from East

Location: Middle Wallop

Current Time: Dec 4, 2016 at 12:32:21 pm

Latest Report: Dec 4, 2016 at 11:50 am


Visibility: N/A

Pressure: 30.18 "Hg

Humidity: 66%

Dew Point: 30 °F

Location of WinchesterLocation

Past Weather in Winchester — Graph

°F

Winchester Temperature Yesterday

Maximum temperature yesterday: 46 °F (at 12:50 pm)
Minimum temperature yesterday: 36 °F (at 9:50 pm)
Average temperature yesterday: 41 °F

High & Low Weather Summary for the Past Weeks

 TemperatureHumidityPressure
High54 °F (Nov 21, 12:50 pm)100% (Nov 19, 8:50 pm)30.57 "Hg (Nov 19, 8:50 pm)
Low23 °F (Dec 1, 3:50 am)25% (Nov 28, 12:50 pm)28.62 "Hg (Nov 20, 4:50 am)
Average41 °F82%30.04 "Hg
* Reported Nov 19 10:50 am — Dec 4 10:50 am, Winchester, Weather by CustomWeather, © 2016

Note: Actual official high and low records may vary slightly from our data, if they occured in-between our weather recording intervals... More about our weather records

Advertising

Winchester Weather History for the Previous 24 Hours

Scroll right to see more
 ConditionsComfort  
Time TempWeatherWind HumidityBarometerVisibility
10:50 am
Sun, Dec 4
39 °FSunny.15 mph70%30.18 "HgN/A
9:50 am37 °FSunny.12 mph81%30.21 "HgN/A
8:50 am36 °FSunny.12 mph81%30.18 "HgN/A
7:50 am34 °FClear.13 mph93%30.18 "HgN/A
6:50 am34 °FClear.12 mph93%30.18 "HgN/A
5:50 am34 °FClear.10 mph87%30.18 "HgN/A
4:50 am34 °FClear.12 mph87%30.21 "HgN/A
3:50 am34 °FClear.9 mph87%30.18 "HgN/A
2:50 am34 °FClear.8 mph87%30.18 "HgN/A
1:50 am36 °FClear.8 mph81%30.21 "HgN/A
12:50 am36 °FClear.9 mph81%30.21 "HgN/A
11:50 pm
Sat, Dec 3
36 °FClear.9 mph81%30.21 "HgN/A
10:50 pm36 °FClear.9 mph81%30.21 "HgN/A
9:50 pm36 °FClear.9 mph81%30.21 "HgN/A
8:50 pm37 °FClear.10 mph75%30.21 "HgN/A
7:50 pm37 °FClear.12 mph75%30.21 "HgN/A
6:50 pm39 °FClear.10 mph70%30.21 "HgN/A
5:50 pm39 °FClear.12 mph70%30.21 "HgN/A
4:50 pm41 °FClear.10 mph66%30.21 "HgN/A
3:50 pm43 °FSunny.10 mph61%30.21 "HgN/A
2:50 pm45 °FPartly sunny.13 mph57%30.21 "HgN/A
1:50 pm45 °FPassing clouds.10 mph61%30.21 "HgN/A
12:50 pm46 °FPartly sunny.14 mph57%30.21 "HgN/A
Weather by CustomWeather, © 2016

See weather overviewHow to use our weather pages